�N����,����,�~����,�C��,���x,�C��,����,���ϕ���,�ő�u�ԕ���,�ő厞����,���˗�,�I�_���x,�n�����x,�ő啗���N��,DTYPE
"21/11/21","00:10",0.0,7.8,91.8,1017.1,298.1,1.8,2.4,309.3,0.00,6.6,13.0,"00:02:56",1
"21/11/21","00:20",0.0,7.9,92.2,1017.3,300.4,1.8,2.7,323.6,0.00,6.8,12.9,"00:19:20",1
"21/11/21","00:30",0.0,7.8,92.2,1017.1,298.2,1.2,2.6,317.0,0.00,6.7,13.1,"00:21:44",1
"21/11/21","00:40",0.0,7.5,92.4,1017.1,282.8,1.5,1.8,312.3,0.00,6.4,13.0,"00:38:32",1
"21/11/21","00:50",0.0,7.8,92.7,1016.8,307.5,2.2,3.2,318.6,0.00,6.7,12.9,"00:44:24",1
"21/11/21","01:00",0.0,7.4,92.8,1016.6,302.0,1.6,2.4,316.0,0.00,6.4,12.8,"00:51:20",1
"21/11/21","01:10",0.0,7.2,93.2,1016.8,297.1,1.6,2.2,264.5,0.00,6.2,12.6,"01:01:52",1
"21/11/21","01:20",0.0,7.1,93.3,1016.6,300.2,1.5,2.0,315.8,0.00,6.1,12.8,"01:15:04",1
"21/11/21","01:30",0.0,6.7,93.4,1016.8,294.4,1.0,1.4,277.2,0.00,5.8,12.7,"01:27:44",1
"21/11/21","01:40",0.0,6.9,94.0,1016.6,307.2,1.6,2.9,324.6,0.00,6.0,12.7,"01:39:12",1
"21/11/21","01:50",0.0,7.8,93.9,1016.4,297.6,2.1,3.5,332.5,0.00,6.9,12.8,"01:45:20",1
"21/11/21","02:00",0.0,7.5,93.8,1016.4,280.1,0.7,1.6,312.9,0.00,6.6,12.5,"01:50:56",1
"21/11/21","02:10",0.0,7.2,94.3,1017.1,294.9,1.2,2.7,317.1,0.00,6.4,12.6,"02:00:02",1
"21/11/21","02:20",0.0,7.1,94.2,1016.6,289.5,0.7,2.6,331.1,0.00,6.3,12.7,"02:10:08",1
"21/11/21","02:30",0.0,6.7,94.5,1016.8,301.4,1.6,2.2,310.5,0.00,5.9,12.6,"02:26:48",1
"21/11/21","02:40",0.0,7.6,94.8,1016.8,301.1,2.3,3.7,304.2,0.00,6.9,12.7,"02:39:20",1
"21/11/21","02:50",0.0,8.3,94.8,1016.6,308.0,2.6,4.2,339.3,0.00,7.6,12.6,"02:48:56",1
"21/11/21","03:00",0.0,8.5,94.6,1016.8,322.1,3.4,5.9,323.3,0.00,7.7,12.5,"02:52:24",1
"21/11/21","03:10",0.0,8.7,94.3,1016.6,322.3,3.2,5.0,320.4,0.00,7.9,12.3,"03:01:44",1
"21/11/21","03:20",0.0,8.7,94.2,1016.4,316.4,2.7,4.4,334.6,0.00,7.9,12.6,"03:15:04",1
"21/11/21","03:30",0.0,8.6,94.2,1016.4,310.1,2.6,3.9,330.4,0.00,7.8,12.4,"03:25:52",1
"21/11/21","03:40",0.0,8.5,94.1,1016.8,310.5,2.1,4.8,320.6,0.00,7.6,12.4,"03:31:20",1
"21/11/21","03:50",0.0,8.1,94.1,1016.6,304.1,1.8,3.5,337.6,0.00,7.2,12.5,"03:48:16",1
"21/11/21","04:00",0.0,8.1,94.1,1016.8,313.6,2.3,3.5,334.1,0.00,7.2,12.4,"03:55:44",1
"21/11/21","04:10",0.0,8.2,94.1,1016.4,308.0,2.5,4.0,331.9,0.00,7.3,12.3,"04:02:08",1
"21/11/21","04:20",0.0,8.3,93.9,1015.9,316.3,2.6,3.7,338.3,0.00,7.4,12.3,"04:14:32",1
"21/11/21","04:30",0.0,8.1,93.7,1016.1,299.2,2.0,3.3,310.1,0.00,7.2,12.2,"04:22:16",1
"21/11/21","04:40",0.0,7.6,93.7,1015.9,307.7,1.6,2.8,318.4,0.00,6.7,12.3,"04:31:20",1
"21/11/21","04:50",0.0,6.9,93.8,1015.9,311.8,1.8,2.1,327.1,0.00,6.0,12.3,"04:44:48",1
"21/11/21","05:00",0.0,6.7,93.9,1016.1,313.7,1.5,2.0,320.6,0.00,5.8,12.1,"04:50:40",1
"21/11/21","05:10",0.0,6.3,94.1,1015.6,298.7,1.5,1.8,310.5,0.00,5.5,12.1,"05:00:32",1
"21/11/21","05:20",0.0,6.5,94.2,1015.9,295.4,1.5,2.1,315.4,0.00,5.7,12.0,"05:17:52",1
"21/11/21","05:30",0.0,6.6,94.2,1016.1,324.1,1.8,2.4,332.6,0.00,5.8,12.2,"05:24:08",1
"21/11/21","05:40",0.0,6.4,94.2,1016.1,310.0,1.5,2.1,321.7,0.00,5.6,12.1,"05:31:20",1
"21/11/21","05:50",0.0,6.2,94.3,1016.1,313.0,1.5,2.1,313.2,0.00,5.4,12.1,"05:42:40",1
"21/11/21","06:00",0.0,6.1,94.5,1016.6,298.8,1.3,2.0,313.4,0.00,5.3,12.2,"05:53:36",1
"21/11/21","06:10",0.0,6.3,94.7,1016.4,284.6,1.3,2.0,300.6,0.00,5.6,12.2,"06:08:26",1
"21/11/21","06:20",0.0,6.7,94.7,1016.8,299.3,1.2,2.8,331.6,0.00,6.0,12.1,"06:16:48",1
"21/11/21","06:30",0.0,7.3,94.8,1016.6,316.2,2.6,4.4,320.9,0.00,6.6,12.0,"06:27:52",1
"21/11/21","06:40",0.0,7.5,94.6,1016.6,308.5,2.3,3.5,324.6,0.00,6.7,12.1,"06:33:52",1
"21/11/21","06:50",0.0,7.5,94.6,1017.1,306.3,2.3,3.6,327.3,0.00,6.7,12.1,"06:48:56",1
"21/11/21","07:00",0.0,7.7,94.6,1017.1,311.0,2.8,4.8,333.9,0.00,6.9,12.1,"06:59:52",1
"21/11/21","07:10",0.0,7.8,94.5,1017.8,314.7,3.0,4.7,309.5,0.00,7.0,12.1,"07:01:52",1
"21/11/21","07:20",0.0,7.8,94.5,1017.3,290.7,2.2,4.2,312.4,0.00,7.0,11.8,"07:17:44",1
"21/11/21","07:30",0.0,8.0,94.3,1017.3,291.2,2.1,3.7,301.5,0.00,7.2,11.8,"07:20:24",1
"21/11/21","07:40",0.0,8.0,94.3,1017.5,309.1,2.0,3.9,304.6,0.00,7.2,12.1,"07:36:00",1
"21/11/21","07:50",0.0,8.4,94.1,1017.5,306.3,2.5,4.1,332.1,0.01,7.5,11.7,"07:44:48",1
"21/11/21","08:00",0.0,8.5,94.0,1018.2,302.5,1.6,2.9,326.5,0.02,7.6,12.0,"07:56:40",1
"21/11/21","08:10",0.0,8.6,93.7,1017.8,269.4,0.7,1.4,265.1,0.03,7.7,11.9,"08:09:28",1
"21/11/21","08:20",0.0,9.1,93.6,1018.2,302.9,1.2,1.8,327.4,0.04,8.2,11.8,"08:18:48",1
"21/11/21","08:30",0.0,9.7,93.2,1018.0,305.1,1.0,1.6,320.1,0.06,8.7,11.8,"08:25:36",1
"21/11/21","08:40",0.0,10.1,92.7,1018.0,272.3,1.1,2.1,248.3,0.08,9.0,12.0,"08:38:32",1
"21/11/21","08:50",0.0,10.2,92.4,1018.5,257.5,1.2,2.1,242.0,0.10,9.1,11.9,"08:48:32",1
"21/11/21","09:00",0.0,10.6,91.8,1018.5,241.8,1.0,2.0,250.8,0.14,9.4,12.0,"08:51:20",1
"21/11/21","09:10",0.0,11.1,90.3,1018.5,242.7,0.7,1.4,238.8,0.16,9.6,11.8,"09:06:08",1
"21/11/21","09:20",0.0,11.8,89.4,1018.5,251.2,0.6,1.0,263.0,0.18,10.2,11.8,"09:18:56",1
"21/11/21","09:30",0.0,12.6,87.7,1018.7,272.5,0.5,1.1,322.6,0.22,10.7,12.0,"09:27:04",1
"21/11/21","09:40",0.0,12.9,85.7,1019.0,253.3,0.3,1.0,198.7,0.24,10.6,11.9,"09:38:16",1
"21/11/21","09:50",0.0,13.4,82.7,1018.5,256.9,0.5,1.3,234.9,0.23,10.6,12.2,"09:43:44",1
"21/11/21","10:00",0.0,13.7,80.0,1018.5,234.4,0.7,1.4,203.9,0.25,10.4,12.0,"09:58:24",1
"21/11/21","10:10",0.0,14.0,77.9,1018.5,232.4,0.5,1.3,120.1,0.22,10.2,12.0,"10:02:16",1
"21/11/21","10:20",0.0,14.3,75.2,1018.5,109.6,0.3,1.1,330.5,0.22,10.0,12.1,"10:14:24",1
"21/11/21","10:30",0.0,15.0,73.5,1018.2,268.9,0.5,1.2,330.3,0.33,10.3,12.2,"10:27:36",1
"21/11/21","10:40",0.0,15.6,69.9,1017.8,275.8,0.6,1.3,346.7,0.34,10.2,12.2,"10:31:52",1
"21/11/21","10:50",0.0,16.0,67.9,1017.5,240.1,0.7,1.9,221.6,0.39,10.1,12.3,"10:48:32",1
"21/11/21","11:00",0.0,16.2,66.3,1017.5,239.3,0.7,1.9,207.0,0.31,10.0,12.4,"10:57:28",1
"21/11/21","11:10",0.0,16.2,66.4,1017.5,189.5,0.7,1.4,202.6,0.22,10.0,12.4,"11:01:04",1
"21/11/21","11:20",0.0,16.1,66.4,1017.1,198.1,0.6,2.2,212.1,0.26,9.9,12.5,"11:10:08",1
"21/11/21","11:30",0.0,16.9,65.4,1016.4,280.0,0.7,1.7,317.3,0.34,10.4,12.7,"11:25:20",1
"21/11/21","11:40",0.0,17.1,62.7,1016.1,48.8,0.6,1.4,340.4,0.28,10.0,12.7,"11:35:28",1
"21/11/21","11:50",0.0,17.0,61.7,1015.9,253.1,0.5,1.1,291.6,0.21,9.6,12.7,"11:42:24",1
"21/11/21","12:00",0.0,17.4,60.8,1015.9,284.4,0.8,1.9,316.3,0.27,9.8,13.0,"11:56:56",1
"21/11/21","12:10",0.0,17.7,59.8,1015.6,269.6,0.6,1.8,209.2,0.31,9.8,13.0,"12:08:40",1
"21/11/21","12:20",0.0,18.0,59.4,1015.6,199.2,0.6,1.4,138.4,0.30,10.0,12.9,"12:13:36",1
"21/11/21","12:30",0.0,17.9,59.3,1015.2,281.3,1.0,2.2,237.8,0.20,9.9,13.2,"12:24:08",1
"21/11/21","12:40",0.0,18.2,58.6,1014.9,309.3,1.0,2.0,326.1,0.24,10.0,13.2,"12:31:12",1
"21/11/21","12:50",0.0,18.6,56.9,1014.9,340.2,0.8,2.1,338.6,0.31,9.9,13.2,"12:43:20",1
"21/11/21","13:00",0.0,19.5,56.4,1014.5,333.8,0.6,1.6,344.9,0.38,10.6,13.3,"12:51:20",1
"21/11/21","13:10",0.0,20.2,53.6,1014.5,11.6,0.6,1.2,205.2,0.43,10.5,13.4,"13:01:36",1
"21/11/21","13:20",0.0,19.8,51.8,1013.8,235.2,0.6,1.7,122.6,0.35,9.7,13.5,"13:10:08",1
"21/11/21","13:30",0.0,20.3,52.1,1014.0,269.0,0.7,1.7,237.6,0.37,10.2,13.5,"13:23:44",1
"21/11/21","13:40",0.0,20.2,50.4,1014.2,287.1,0.7,1.9,236.1,0.34,9.6,13.7,"13:35:36",1
"21/11/21","13:50",0.0,19.8,52.1,1013.8,128.4,0.6,1.8,121.1,0.20,9.7,13.6,"13:40:24",1
"21/11/21","14:00",0.0,19.3,53.6,1013.8,212.1,0.7,1.9,200.4,0.17,9.7,13.9,"13:57:28",1
"21/11/21","14:10",0.0,19.3,54.9,1013.8,222.2,1.1,2.8,225.8,0.18,10.1,13.7,"14:09:28",1
"21/11/21","14:20",0.0,19.0,55.4,1013.5,225.1,1.1,2.4,239.9,0.13,9.9,13.7,"14:16:56",1
"21/11/21","14:30",0.0,19.0,57.3,1013.8,209.9,0.5,1.8,233.3,0.11,10.4,14.1,"14:21:52",1
"21/11/21","14:40",0.0,18.6,56.8,1013.5,211.2,0.6,1.7,151.3,0.09,9.9,14.2,"14:38:48",1
"21/11/21","14:50",0.0,18.7,57.9,1013.0,161.4,0.5,1.1,230.0,0.11,10.3,14.1,"14:40:40",1
"21/11/21","15:00",0.0,18.8,58.5,1013.5,217.4,0.7,2.7,233.1,0.09,10.5,14.3,"14:56:32",1
"21/11/21","15:10",0.0,18.7,58.7,1013.0,199.0,0.7,1.6,125.1,0.11,10.5,14.2,"15:04:40",1
"21/11/21","15:20",0.0,18.7,58.0,1013.8,231.5,1.0,2.2,224.8,0.11,10.3,14.2,"15:19:44",1
"21/11/21","15:30",0.0,18.8,59.1,1013.5,229.5,0.6,1.8,232.9,0.08,10.7,14.3,"15:20:08",1
"21/11/21","15:40",0.0,18.6,59.3,1013.0,189.0,0.6,2.0,220.4,0.06,10.6,14.6,"15:33:20",1
"21/11/21","15:50",0.0,18.2,59.7,1013.3,169.2,0.7,2.2,138.8,0.05,10.3,14.4,"15:48:00",1
"21/11/21","16:00",0.0,18.0,60.2,1013.5,179.5,0.7,2.2,141.9,0.03,10.2,14.2,"15:55:28",1
"21/11/21","16:10",0.0,18.0,62.0,1013.3,242.0,0.5,1.6,129.4,0.02,10.7,14.4,"16:00:56",1
"21/11/21","16:20",0.0,17.8,63.4,1013.5,242.1,0.8,1.8,229.9,0.00,10.8,14.4,"16:15:52",1
"21/11/21","16:30",0.0,17.5,64.1,1013.3,150.2,0.1,0.8,112.7,0.00,10.7,14.5,"16:22:00",1
"21/11/21","16:40",0.0,17.1,65.1,1013.3,273.5,0.3,0.9,258.1,0.00,10.5,14.4,"16:38:24",1
"21/11/21","16:50",0.0,17.0,67.4,1013.5,290.0,0.8,1.8,334.7,0.00,11.0,14.4,"16:49:12",1
"21/11/21","17:00",0.0,16.5,69.0,1013.8,298.0,0.7,1.4,308.9,0.00,10.8,14.2,"16:50:24",1
"21/11/21","17:10",0.0,16.3,70.3,1013.3,342.3,0.7,1.1,319.5,0.00,10.9,14.4,"17:00:16",1
"21/11/21","17:20",0.0,16.2,71.2,1013.0,333.2,1.0,2.2,318.3,0.00,11.0,14.5,"17:19:36",1
"21/11/21","17:30",0.0,15.7,72.1,1012.8,299.1,0.8,1.6,300.1,0.00,10.7,14.6,"17:28:00",1
"21/11/21","17:40",0.0,15.5,73.0,1013.5,314.5,1.0,1.7,319.0,0.00,10.7,14.6,"17:33:12",1
"21/11/21","17:50",0.0,15.3,73.7,1013.5,305.8,0.8,1.2,309.7,0.00,10.7,14.6,"17:42:56",1
"21/11/21","18:00",0.0,15.2,74.6,1013.5,276.1,0.7,1.1,299.4,0.00,10.8,14.4,"17:56:00",1
"21/11/21","18:10",0.0,15.0,75.6,1013.5,309.0,0.8,1.6,320.0,0.00,10.8,14.7,"18:05:36",1
"21/11/21","18:20",0.0,14.8,76.8,1013.5,291.3,0.7,1.1,295.1,0.00,10.8,14.3,"18:18:56",1
"21/11/21","18:30",0.0,14.6,77.8,1013.5,315.1,1.1,1.4,320.2,0.00,10.8,14.4,"18:27:44",1
"21/11/21","18:40",0.0,14.4,79.0,1013.5,335.0,1.0,1.3,336.6,0.00,10.8,14.3,"18:33:36",1
"21/11/21","18:50",0.0,14.1,80.1,1013.8,288.2,0.7,1.6,267.2,0.00,10.8,14.5,"18:48:16",1
"21/11/21","19:00",0.0,13.8,81.1,1013.5,293.5,0.7,1.4,262.1,0.00,10.7,14.4,"18:50:24",1
"21/11/21","19:10",0.0,13.6,81.8,1013.8,294.7,0.7,1.6,334.6,0.00,10.6,14.3,"19:09:32",1
"21/11/21","19:20",0.0,13.5,82.6,1013.3,331.5,1.0,1.3,350.0,0.00,10.6,14.4,"19:18:26",1
"21/11/21","19:30",0.0,13.4,83.2,1013.8,317.8,1.1,1.7,335.0,0.00,10.7,14.5,"19:27:48",1
"21/11/21","19:40",0.0,13.0,83.9,1014.0,295.1,1.0,1.6,319.4,0.00,10.4,14.4,"19:32:04",1
"21/11/21","19:50",0.0,13.0,84.5,1013.8,306.1,0.8,1.2,317.7,0.00,10.5,14.4,"19:48:48",1
"21/11/21","20:00",0.0,13.1,84.9,1014.0,326.1,1.0,1.8,333.9,0.00,10.7,14.4,"19:54:06",1
"21/11/21","20:10",0.0,13.0,85.2,1013.8,309.8,0.8,1.2,309.6,0.00,10.6,14.3,"20:07:30",1
"21/11/21","20:20",0.0,12.9,85.5,1013.8,293.9,1.0,1.7,318.9,0.00,10.6,14.2,"20:11:52",1
"21/11/21","20:30",0.0,12.9,85.8,1014.2,303.2,0.7,1.3,312.4,0.00,10.6,14.3,"20:25:40",1
"21/11/21","20:40",0.0,12.9,86.2,1013.8,310.8,1.1,1.4,321.1,0.00,10.7,14.2,"20:33:18",1
"21/11/21","20:50",0.0,13.0,86.4,1014.0,273.9,0.8,1.1,262.5,0.00,10.8,14.3,"20:43:30",1
"21/11/21","21:00",0.0,13.1,86.5,1013.8,287.4,0.7,1.1,283.6,0.00,10.9,14.3,"20:55:16",1
"21/11/21","21:10",0.0,13.1,86.6,1013.8,305.3,0.8,1.3,311.7,0.00,11.0,14.3,"21:01:52",1
"21/11/21","21:20",0.0,13.3,86.6,1014.0,316.7,0.8,1.7,310.6,0.00,11.2,14.3,"21:19:28",1
"21/11/21","21:30",0.0,13.0,86.7,1014.2,323.4,1.3,1.7,321.0,0.00,10.9,14.3,"21:26:54",1
"21/11/21","21:40",0.0,12.6,86.9,1014.0,319.6,1.1,1.6,322.5,0.00,10.5,14.1,"21:31:00",1
"21/11/21","21:50",0.0,12.4,87.2,1013.8,292.5,0.5,1.1,322.5,0.00,10.4,14.1,"21:40:18",1
"21/11/21","22:00",0.0,12.4,87.6,1014.0,329.6,0.5,1.6,332.7,0.00,10.4,14.1,"21:58:42",1
"21/11/21","22:10",0.0,12.3,88.0,1013.5,325.9,1.5,2.1,318.8,0.00,10.4,14.1,"22:02:00",1
"21/11/21","22:20",0.0,12.0,88.2,1013.8,288.9,1.0,1.3,318.2,0.00,10.1,14.1,"22:10:44",1
"21/11/21","22:30",0.0,11.9,88.9,1013.5,302.5,1.2,1.4,316.5,0.00,10.2,14.1,"22:24:50",1
"21/11/21","22:40",0.0,12.1,89.1,1013.3,298.9,1.0,1.3,312.1,0.00,10.4,14.1,"22:37:56",1
"21/11/21","22:50",0.0,12.3,89.2,1012.6,276.1,0.8,1.3,310.5,0.00,10.6,14.0,"22:40:08",1
"21/11/21","23:00",0.0,12.2,89.4,1012.6,293.4,1.0,1.2,309.7,0.00,10.5,13.9,"22:53:02",1
"21/11/21","23:10",0.0,12.1,89.7,1012.6,311.4,1.2,1.7,321.6,0.00,10.5,14.2,"23:09:08",1
"21/11/21","23:20",0.0,11.8,89.9,1012.6,315.7,1.3,1.7,321.5,0.00,10.2,14.0,"23:18:14",1
"21/11/21","23:30",0.0,11.8,90.3,1012.6,336.8,1.1,1.6,317.7,0.00,10.3,13.9,"23:29:28",1
"21/11/21","23:40",0.0,11.5,90.4,1012.6,306.6,1.2,1.6,314.9,0.00,10.0,14.2,"23:30:48",1
"21/11/21","23:50",0.0,11.2,90.9,1012.3,293.1,1.0,1.6,318.0,0.00,9.8,14.2,"23:49:04",1
"21/11/21","24:00",0.0,11.3,91.1,1011.9,320.0,1.5,1.8,324.1,0.00,9.9,14.0,"23:56:16",1
